Stations météo

réclame
Mon MeteoGroup
Bierset/Liege, Belgique (6478): Température de l'air & dewpoint: 12.01.2019 01:00:00 - 18.01.2019 01:00:00 (CET)Bierset/Liege, Belgique (6478): Vitesse du vent & gusts: 12.01.2019 01:00:00 - 18.01.2019 01:00:00 (CET)Bierset/Liege, Belgique (6478): Direction du vent: 12.01.2019 01:00:00 - 18.01.2019 01:00:00 (CET)Bierset/Liege, Belgique (6478): reduced air pressure: 12.01.2019 01:00:00 - 18.01.2019 01:00:00 (CET)Bierset/Liege, Belgique (6478): visibility: 12.01.2019 01:00:00 - 18.01.2019 01:00:00 (CET)
Date & Time tt [°C] td [°C] ff [km/h] ff [knt] fx [km/h] fx [knt] dd ppp [hPa] vv [km]
18.01.2019 01:00:00 1,0 0,0 18 10 - - W - 9
18.01.2019 00:00:00 0,4 -0,2 21 11 29 16 W 1015,8 10
17.01.2019 23:00:00 0,4 -0,3 18 10 32 18 W 1015,0 10
17.01.2019 22:00:00 0,1 -0,6 21 11 - - W 1014,3 10
17.01.2019 21:00:00 0,6 -0,5 18 10 36 19 W 1013,4 10
17.01.2019 20:00:00 1,2 -0,2 24 13 54 29 W 1011,9 10
17.01.2019 19:00:00 1,0 -0,3 34 18 - - W 1010,6 7
17.01.2019 18:00:00 1,8 -0,9 22 12 36 19 W 1009,8 10
17.01.2019 17:00:00 1,6 -0,8 21 11 43 23 W 1009,1 10
17.01.2019 16:00:00 1,5 0,8 16 9 - - NW 1008,3 10
17.01.2019 15:00:00 2,1 0,4 21 11 54 29 NW 1007,0 10
17.01.2019 14:00:00 3,4 2,1 24 13 43 23 W 1005,6 10
17.01.2019 13:00:00 2,8 1,9 24 13 - - W 1005,0 7
17.01.2019 12:00:00 3,6 2,5 29 16 50 27 WSW 1004,2 9
17.01.2019 11:00:00 4,5 3,2 28 15 50 27 WSW 1003,7 10
17.01.2019 10:00:00 4,3 3,3 26 14 - - SSW 1003,3 9
17.01.2019 09:00:00 4,1 3,0 22 12 32 18 SSW 1003,4 10
17.01.2019 08:00:00 3,8 2,6 21 11 29 16 SSW 1003,6 10
17.01.2019 07:00:00 3,8 2,4 21 11 - - SW 1004,0 10
17.01.2019 06:00:00 4,3 3,0 16 9 25 14 SW 1004,0 10
17.01.2019 05:00:00 4,4 3,3 16 9 29 16 SW 1004,1 10
17.01.2019 04:00:00 4,8 4,0 21 11 - - SW 1004,1 10
17.01.2019 03:00:00 4,6 3,9 26 14 43 23 SW 1004,4 9
17.01.2019 02:00:00 4,5 3,7 28 15 40 21 SW 1004,2 8
17.01.2019 01:00:00 4,1 3,3 28 15 - - SSW 1004,2 4,5
17.01.2019 00:00:00 3,8 2,8 26 14 47 25 SSW 1004,5 6
16.01.2019 23:00:00 4,4 1,4 29 16 47 25 SSW 1004,5 10
16.01.2019 22:00:00 4,4 1,1 29 16 - - SSW 1005,0 10
16.01.2019 21:00:00 4,5 0,8 29 16 47 25 SSW 1005,1 10
16.01.2019 20:00:00 4,4 0,7 28 15 47 25 SSW 1006,0 10
16.01.2019 19:00:00 4,3 0,4 28 15 - - SSW 1006,5 10
16.01.2019 18:00:00 4,3 0,7 24 13 40 21 SSW 1006,5 10
16.01.2019 17:00:00 5,0 0,6 28 15 40 21 SSW 1006,7 10
16.01.2019 16:00:00 5,2 0,7 21 11 - - SSW 1007,4 10
16.01.2019 15:00:00 5,2 0,7 18 10 43 23 SSW 1008,5 10
16.01.2019 14:00:00 5,1 0,0 29 16 47 25 SSW 1009,4 10
16.01.2019 13:00:00 4,9 0,7 26 14 - - SW 1011,0 10
16.01.2019 12:00:00 4,6 0,9 26 14 40 21 SSW 1011,9 10
16.01.2019 11:00:00 4,3 0,7 21 11 36 19 SSW 1012,9 10
16.01.2019 10:00:00 4,2 0,8 22 12 - - SW 1013,5 10
16.01.2019 09:00:00 4,2 0,8 21 11 32 18 SSW 1013,6 10
16.01.2019 08:00:00 4,4 1,4 21 11 36 19 SSW 1013,9 10
16.01.2019 07:00:00 4,8 1,6 24 13 - - SW 1014,4 10
16.01.2019 06:00:00 5,1 1,6 25 14 36 19 SSW 1014,6 30
16.01.2019 05:00:00 5,3 2,0 24 13 36 19 SW 1015,4 10
16.01.2019 04:00:00 5,3 2,3 24 13 - - SW 1016,1 10
16.01.2019 03:00:00 5,1 2,6 28 15 40 21 SW 1016,6 10
16.01.2019 02:00:00 5,1 2,9 22 12 32 18 SW 1016,9 10
16.01.2019 01:00:00 4,9 3,3 24 13 - - SW 1017,4 10
16.01.2019 00:00:00 4,9 3,5 22 12 32 18 SW 1017,9 10
15.01.2019 23:00:00 5,0 3,5 21 11 40 21 SW 1018,5 10
15.01.2019 22:00:00 5,1 3,7 28 15 - - SW 1018,6 10
15.01.2019 21:00:00 5,1 3,8 26 14 36 19 SW 1018,8 10
15.01.2019 20:00:00 5,1 3,5 26 14 36 19 SW 1019,3 10
15.01.2019 19:00:00 5,1 3,5 26 14 - - SW 1019,4 10
15.01.2019 18:00:00 4,9 3,8 24 13 36 19 SW 1019,6 8
15.01.2019 17:00:00 5,2 3,4 21 11 32 18 SW 1019,8 10
15.01.2019 16:00:00 5,7 3,6 24 13 - - WSW 1019,8 10
15.01.2019 15:00:00 6,1 2,9 24 13 36 19 WSW 1019,9 10
15.01.2019 14:00:00 6,0 2,3 28 15 47 25 WSW 1020,2 10
15.01.2019 13:00:00 6,1 2,6 29 16 - - WSW 1020,5 20
15.01.2019 12:00:00 5,8 3,1 24 13 32 18 WSW 1021,3 10
15.01.2019 11:00:00 5,0 3,3 22 12 29 16 SW 1021,5 10
15.01.2019 10:00:00 4,2 3,2 22 12 - - SW 1021,6 10
15.01.2019 09:00:00 3,7 2,8 21 11 29 16 WSW 1021,5 7
15.01.2019 08:00:00 3,6 2,8 21 11 29 16 SW 1021,5 7
15.01.2019 07:00:00 3,4 2,6 18 10 - - SW 1021,5 8
15.01.2019 06:00:00 3,1 2,4 18 10 25 14 SW 1022,0 9
15.01.2019 05:00:00 3,1 2,3 15 8 22 12 SW 1022,5 9
15.01.2019 04:00:00 2,9 2,5 13 7 - - SW 1022,8 6
15.01.2019 03:00:00 2,8 2,2 9 5 18 10 WSW 1022,8 10
15.01.2019 02:00:00 2,7 2,1 11 6 14 8 SW 1022,6 10
15.01.2019 01:00:00 2,8 2,3 11 6 - - WSW 1022,4 10
15.01.2019 00:00:00 2,8 1,5 11 6 14 8 W 1022,6 10
14.01.2019 23:00:00 2,5 1,3 5 3 14 8 WNW 1022,3 10
14.01.2019 22:00:00 2,5 1,5 9 5 - - W 1022,2 10
14.01.2019 21:00:00 2,9 1,5 9 5 14 8 W 1022,1 10
14.01.2019 20:00:00 2,9 1,2 9 5 14 8 W 1021,6 10
14.01.2019 19:00:00 2,9 1,6 5 3 - - W 1021,0 10
14.01.2019 18:00:00 3,1 0,8 8 4 18 10 NW 1020,5 10
14.01.2019 17:00:00 3,6 1,2 9 5 32 18 NNW 1020,0 10
14.01.2019 16:00:00 4,1 1,5 11 6 - - NW 1018,8 10
14.01.2019 15:00:00 4,0 2,2 15 8 40 21 NNW 1017,8 10
14.01.2019 14:00:00 3,4 1,9 22 12 40 21 N 1017,4 8
14.01.2019 13:00:00 6,1 3,8 14 8 - - NW 1016,3 18
14.01.2019 12:00:00 5,4 4,0 16 9 25 14 NW 1015,9 10
14.01.2019 11:00:00 5,1 3,8 16 9 29 16 NW 1015,2 10
14.01.2019 10:00:00 4,4 3,6 16 9 - - WNW 1014,6 10
14.01.2019 09:00:00 4,8 3,8 18 10 36 19 WNW 1013,6 10
14.01.2019 08:00:00 5,3 3,8 21 11 36 19 WNW 1012,7 8
14.01.2019 07:00:00 5,5 3,8 18 10 - - WNW 1012,2 10
14.01.2019 06:00:00 5,6 3,8 21 11 32 18 WNW 1011,4 10
14.01.2019 05:00:00 5,8 3,6 21 11 32 18 WNW 1011,1 10
14.01.2019 04:00:00 5,8 4,1 16 9 - - WNW 1010,8 10
14.01.2019 03:00:00 6,1 3,9 16 9 32 18 WNW 1009,8 10
14.01.2019 02:00:00 6,2 4,3 16 9 36 19 WNW 1009,0 10
14.01.2019 01:00:00 6,3 4,4 18 10 - - WNW 1008,3 10
14.01.2019 00:00:00 7,2 4,1 21 11 43 23 NW 1007,8 10
13.01.2019 23:00:00 7,5 4,9 21 11 40 21 NW 1007,0 10
13.01.2019 22:00:00 7,3 4,5 21 11 - - WNW 1006,4 10
13.01.2019 21:00:00 7,1 5,9 29 16 47 25 NW 1006,3 3,5
13.01.2019 20:00:00 8,1 6,8 26 14 47 25 W 1005,9 10
13.01.2019 19:00:00 8,1 6,8 24 13 - - W 1006,4 10
13.01.2019 18:00:00 8,1 7,0 28 15 50 27 W 1006,8 10
13.01.2019 17:00:00 7,9 7,5 28 15 47 25 W 1007,1 2,5
13.01.2019 16:00:00 8,0 7,6 28 15 - - W 1006,8 3,2
13.01.2019 15:00:00 7,9 7,6 28 15 40 21 W 1007,3 2,0
13.01.2019 14:00:00 7,9 7,4 28 15 43 23 W 1008,1 3,2
13.01.2019 13:00:00 7,7 7,3 28 15 - - W 1008,9 3,0
13.01.2019 12:00:00 8,0 7,0 26 14 43 23 W 1010,0 10
13.01.2019 11:00:00 7,7 6,7 24 13 40 21 W 1010,7 10
13.01.2019 10:00:00 7,4 7,0 28 15 - - W 1011,3 7
13.01.2019 09:00:00 7,3 7,0 26 14 36 19 W 1011,6 2,4
13.01.2019 08:00:00 7,2 7,0 24 13 36 19 W 1011,5 2,2
13.01.2019 07:00:00 6,9 6,6 22 12 - - WSW 1011,5 2,5
13.01.2019 06:00:00 6,7 6,3 21 11 32 18 W 1012,9 4,2
13.01.2019 05:00:00 6,4 6,0 21 11 36 19 W 1013,8 3,4
13.01.2019 04:00:00 6,1 5,8 24 13 - - WSW 1014,1 2,7
13.01.2019 03:00:00 6,3 6,0 21 11 29 16 WSW 1014,7 2,1
13.01.2019 02:00:00 6,0 5,7 21 11 29 16 W 1015,3 2,0
13.01.2019 01:00:00 6,0 5,6 18 10 - - WSW 1015,4 3,2
13.01.2019 00:00:00 6,2 5,4 18 10 29 16 W 1016,0 10
12.01.2019 23:00:00 6,3 5,5 18 10 32 18 W 1016,1 10
12.01.2019 22:00:00 6,4 5,7 21 11 - - W 1016,4 10
12.01.2019 21:00:00 6,3 5,3 21 11 32 18 W 1016,6 10
12.01.2019 20:00:00 6,4 5,7 21 11 32 18 W 1016,5 10
12.01.2019 19:00:00 6,6 5,9 18 10 - - W 1017,1 10
12.01.2019 18:00:00 6,4 5,9 22 12 40 21 W 1017,2 6
12.01.2019 17:00:00 6,3 5,9 26 14 40 21 W 1017,3 3,2
12.01.2019 16:00:00 5,8 5,3 28 15 - - WSW 1017,6 4,2
12.01.2019 15:00:00 5,4 4,8 29 16 40 21 WSW 1018,4 2,5
12.01.2019 14:00:00 5,4 4,6 28 15 47 25 WSW 1019,4 6
12.01.2019 13:00:00 5,6 4,0 31 17 - - WSW 1020,8 7
12.01.2019 12:00:00 5,2 3,2 28 15 40 21 WSW 1021,8 10
12.01.2019 11:00:00 4,7 2,9 26 14 32 18 SW 1022,9 10
12.01.2019 10:00:00 4,3 2,9 21 11 - - SW 1023,5 7
12.01.2019 09:00:00 4,2 3,3 21 11 29 16 WSW 1024,3 4,5
12.01.2019 08:00:00 4,4 3,8 15 8 29 16 W 1024,6 4,0
12.01.2019 07:00:00 4,6 3,9 21 11 - - WSW 1024,9 5
12.01.2019 06:00:00 4,4 3,9 16 9 22 12 WSW 1025,1 6
12.01.2019 05:00:00 4,2 3,7 15 8 22 12 W 1025,6 8
12.01.2019 04:00:00 4,6 4,3 15 8 - - W 1026,2 4,3
12.01.2019 03:00:00 5,0 4,6 16 9 25 14 WNW 1026,5 6
12.01.2019 02:00:00 4,9 4,5 15 8 25 14 WNW 1026,5 4,0
12.01.2019 01:00:00 4,9 4,6 13 7 - - WNW 1026,7 1,9

tt = Température de l'air
td = dewpoint
ff = Vitesse du vent
fx = gusts
dd = Direction du vent
ppp = reduced air pressure
vv = visibility

stations d'obs. à proximité